カタログに戻る

ATLAS 5 CENTAUR DEB

LostHEO
NORAD 46648·DEBRIS·🇺🇸 United States

打ち上げ Sep 17, 2014 から Cape Canaveral Space Force Station

Loading…

次のパス (今後24時間)

TLE

古いSource: Space-Track

元期: Oct 29, 2023, 01:46 UTC

1 46648U 14055CY  23302.07366603 -.00000144  00000-0  00000+0 0  9993
2 46648  20.5520 257.4061 4674704 322.0410  12.6558  1.77027536 19671

AllMySatでATLAS 5 CENTAUR DEBをリアルタイム追跡

Download on the App Store